WP4MXZ San Sebastian PR US current weather conditions

sailwx.info

Wind from 243

Air temperature 22.8° C
Dewpoint 22.8° C

Last reported at 2016-Dec-11 03:35 UTC.
Time now 2016-Dec-11 04:19 UTC

Location: N 18°20' W 067°00'.
View on Google Maps.

See reports from other nearby stations

  
Tides and Currents Weather Stations Pressure Air Temp Water Temp Dewpoint Dewpoint Depression Visibility Wind Speed Wind Dir Waves Ship Positions
date/time (UTC)wind fromknots sea level pressurealtimeterstation pressurevisibilityair tempwater tempwave heightnotes
2016-Dec-11 03:35 243 22.8
2016-Dec-11 03:05 243 23.3
2016-Dec-11 02:35 243 23.3
2016-Dec-11 02:05 243 23.9
2016-Dec-11 01:35 243 23.9
2016-Dec-11 01:05 243 23.9
2016-Dec-11 00:35 243 24.4
2016-Dec-11 00:05 260 23.9
2016-Dec-10 23:35 270 24.4
2016-Dec-10 23:05 279 24.4
2016-Dec-10 22:35 279 25.6
2016-Dec-10 22:05 279 25.0
2016-Dec-10 21:35 272 0 gusting 2 25.6
2016-Dec-10 21:05 302 26.1
2016-Dec-10 20:35 26.7
2016-Dec-10 20:05 329 28.3
2016-Dec-10 19:35 131 5 gusting 8 28.9
2016-Dec-10 19:05 138 3 30.0
2016-Dec-10 18:35 125 2 30.6
2016-Dec-10 18:05 131 5 30.0
2016-Dec-10 17:35 117 31.1
2016-Dec-10 17:05 177 3 31.1
2016-Dec-10 16:35 153 6 30.6
2016-Dec-10 16:05 145 2 30.6
2016-Dec-10 15:35 116 4 30.0
2016-Dec-10 15:05 193 4 29.4
2016-Dec-10 14:35 121 10 28.9
2016-Dec-10 14:05 112 27.8
2016-Dec-10 13:35 112 26.7
2016-Dec-10 13:05 111 25.0
2016-Dec-10 12:35 112 23.3
2016-Dec-10 12:05 226 21.1
2016-Dec-10 11:35 226 20.6
2016-Dec-10 11:05 219 20.0
2016-Dec-10 10:35 219 20.0
2016-Dec-10 10:05 219 20.6
2016-Dec-10 09:35 219 20.0
2016-Dec-10 09:05 219 20.6
2016-Dec-10 08:35 219 20.6
2016-Dec-10 08:05 219 20.6
2016-Dec-10 07:35 219 20.6
2016-Dec-10 07:05 219 21.1
2016-Dec-10 06:35 218 21.1
2016-Dec-10 06:05 218 21.1
2016-Dec-10 05:35 219 21.1
2016-Dec-10 05:05 219 21.1
2016-Dec-10 04:35 219 21.7
2016-Dec-10 04:05 218 21.7
2016-Dec-10 03:35 219 21.7
2016-Dec-10 03:05 218 22.8
2016-Dec-10 02:35 171 22.8
2016-Dec-10 02:05 171 22.8
2016-Dec-10 01:35 171 24.4
2016-Dec-10 01:05 186 0 gusting 4 24.4
2016-Dec-10 00:35 207 0 gusting 4 25.0
2016-Dec-10 00:05 150 1 gusting 6 25.0
2016-Dec-09 23:35 201 25.0
2016-Dec-09 23:05 242 0 gusting 2 25.0
2016-Dec-09 22:35 253 25.6
2016-Dec-09 22:05 171 26.1
2016-Dec-09 21:35 131 1 gusting 6 26.7
2016-Dec-09 21:05 123 3 gusting 6 27.2
2016-Dec-09 20:35 125 2 gusting 8 27.8
2016-Dec-09 20:05 194 4 gusting 6 28.3
2016-Dec-09 19:35 120 1 gusting 9 28.3
2016-Dec-09 18:35 101 6 28.3
2016-Dec-09 18:05 152 4 28.3
2016-Dec-09 17:35 170 28.3
2016-Dec-09 17:05 147 1 28.3
2016-Dec-09 16:35 146 7 28.3
2016-Dec-09 16:05 169 4 28.3
2016-Dec-09 15:35 181 1 28.3
2016-Dec-09 15:05 148 2 28.3
2016-Dec-09 14:35 147 27.2
2016-Dec-09 14:05 164 3 26.1
2016-Dec-09 13:35 128 1 25.6
2016-Dec-09 13:05 170 25.0
2016-Dec-09 12:35 134 23.9
2016-Dec-09 12:05 273 22.2
2016-Dec-09 11:35 128 21.7
2016-Dec-09 11:05 128 21.1
2016-Dec-09 10:35 127 21.7
2016-Dec-09 10:05 127 21.7
2016-Dec-09 09:35 127 21.7
2016-Dec-09 09:05 175 21.1
2016-Dec-09 08:35 175 21.1
2016-Dec-09 08:05 175 21.1
2016-Dec-09 07:35 175 21.1
2016-Dec-09 07:05 175 20.6
2016-Dec-09 06:35 175 20.6
2016-Dec-09 06:05 175 20.0
2016-Dec-09 05:35 175 20.0
2016-Dec-09 05:05 176 20.0
2016-Dec-09 04:35 175 20.0
2016-Dec-09 04:05 175 20.6